[[{"header":{"parameterUnit":"m.s-1","parameterCategory":1,"la1":30.2991,"la2":30.254,"lo1":-89.0895,"lo2":-89.0444,"dy":0.0017,"dx":0.0017,"nx":28,"ny":28,"refTime":"2025-09-19T09:00:00:Z","depth":0,"parameterNumber":2,"parameterNumberName":"U-component_of_WINDS"},"data":[0,0,0,0,0,0,0,0,0,0,0,0,0,0,0,0,0,0,0,0,0,0,0,0,0,0,0,0,0,0,0,0,0,0,0,0,0,0,0,0,0,0,0,0,0,0,0,0,0,0,0,0,0,0,0,0,0,0,3.0409,3.041,0,3.0497,3.0498,3.0499,3.0456,3.0454,3.0452,3.045,3.0538,3.0543,3.0547,0,0,0,0,0,0,0,0,0,0,0,0,0,3.0205,3.0209,3.0409,3.041,3.0411,3.0497,3.0498,3.0499,3.0457,3.0454,3.0451,3.0449,3.0537,3.0542,3.0547,0,0,0,0,0,0,0,0,0,0,0,0,0,3.0293,3.021,3.0409,3.04,3.04,3.0496,3.0498,3.0499,3.0457,3.0454,3.045,3.0447,3.0535,3.0542,3.0548,3.0657,0,0,3.0569,3.0572,0,0,0,0,0,0,0,0,3.0288,3.0301,3.0401,3.0401,3.0401,3.0462,3.0458,3.0552,3.0458,3.0436,3.045,3.0446,3.0516,3.0524,3.0547,3.0661,3.0665,3.0569,3.0573,3.0576,3.0578,0,0,0,0,0,0,0,3.0282,3.0297,3.0444,3.0402,3.0403,3.0392,3.0401,3.0476,3.0493,3.0437,3.0434,3.0446,3.0515,3.0541,3.0549,3.0666,3.0569,3.0575,3.0579,3.0582,3.0875,3.0878,0,0,0,0,0,0,3.0276,3.0292,3.0441,3.0446,3.0335,3.0399,3.0408,3.0446,3.0493,3.0496,3.0448,3.0443,3.0531,3.0542,3.0552,3.0683,3.0576,3.0582,3.0586,3.0871,3.0876,3.088,0,0,0,0,0,0,3.0272,3.029,3.0437,3.0368,3.0386,3.0406,3.0448,3.045,3.0475,3.0501,3.0504,3.0472,3.0529,3.0543,3.0632,3.0686,3.0585,3.0591,3.0867,3.0872,3.0878,3.0945,0,0,0,0,0,0,3.0266,3.0289,3.033,3.037,3.039,3.0515,3.0452,3.0454,3.0487,3.0481,3.0523,3.0527,3.0528,3.0622,3.0638,3.0693,3.0597,3.0862,3.0869,3.0876,3.0938,3.0953,3.0965,0,0,0,0,0,3.0259,3.0345,3.0332,3.0351,3.0442,3.0518,3.053,3.0529,3.0492,3.0534,3.055,3.0526,3.0677,3.0631,3.0649,3.0707,3.0858,3.0867,3.0875,3.0933,3.095,3.0965,0,0,0,0,0,0,3.0311,3.035,3.0336,3.0438,3.0475,3.0511,3.0564,3.0548,3.0596,3.0588,3.0585,3.0595,3.0687,3.0706,3.0654,3.0815,3.0762,3.0775,3.0799,3.0816,3.0829,3.0822,3.0602,0,0,0,0,0,3.0334,3.0393,3.0424,3.051,3.053,3.0544,3.0577,3.0573,3.0612,3.0627,3.065,3.0688,3.0744,3.0781,3.0834,3.0941,3.095,3.099,3.1003,3.1014,3.1025,3.1083,3.1102,3.0907,3.0907,3.0907,0,0,3.0382,3.0411,3.0448,3.0522,3.055,3.0611,3.0557,3.0624,3.0669,3.0637,3.0722,3.0741,3.0783,3.0882,3.0926,3.09,3.1081,3.1025,3.1033,3.1038,3.1094,3.1112,3.1129,3.0913,3.0912,3.0911,0,0,3.0502,3.053,3.0605,3.0635,3.0679,3.0688,3.0707,3.0746,3.0757,3.0843,3.082,3.0874,3.0971,3.1002,3.1031,3.1165,3.1144,3.1182,3.1251,3.1308,3.1323,3.1337,3.1385,3.1402,3.1193,3.1193,3.1193,0,3.0556,3.0647,3.0645,3.0714,3.0747,3.0723,3.0799,3.0828,3.0888,3.0911,3.0881,3.1003,3.103,3.1136,3.1169,3.1193,3.1214,3.1177,3.1321,3.1335,3.1348,3.1393,3.1411,3.1197,3.1197,3.1196,3.1196,0,3.0712,3.0776,3.0831,3.089,3.0929,3.1002,3.1011,3.1052,3.1045,3.1057,3.1146,3.1177,3.1237,3.1262,3.1256,3.1368,3.135,3.1321,3.1267,3.137,3.1413,3.143,3.1203,3.1202,3.1201,3.1199,0,0,3.0864,3.0923,3.0943,3.097,3.1018,3.1067,3.1139,3.1198,3.1232,3.1275,3.1335,3.1418,3.1392,3.1425,3.1422,3.1473,3.1577,3.1438,3.1439,3.1463,3.1703,3.1724,3.1744,3.1565,3.1568,3.157,3.1699,0,3.0987,3.1112,3.1114,3.1229,3.1289,3.1267,3.1329,3.1366,3.138,3.1432,3.1447,3.1506,3.1468,3.1487,3.1536,3.1554,3.1625,3.1545,3.162,3.1623,3.1609,3.1766,3.1788,3.1908,3.1716,3.1719,3.1721,0,3.1146,3.1194,3.1316,3.1357,3.1382,3.1438,3.1492,3.1543,3.1584,3.1591,3.1628,3.1619,3.1692,3.1637,3.1738,3.1684,3.1715,3.1729,3.1733,3.1739,3.1677,3.1776,3.1946,3.1964,3.1747,3.1745,3.1743,0,3.1245,3.1341,3.1426,3.145,3.1499,3.1539,3.1562,3.16,3.1636,3.1684,3.1707,3.1763,3.1793,3.1837,3.1843,3.1802,3.1945,3.189,3.1952,3.1952,3.1982,3.198,3.2159,3.2004,3.2003,3.2003,3.2003,0,3.1381,3.1456,3.1471,3.1524,3.1608,3.1609,3.1692,3.1711,3.1746,3.1802,3.1787,3.1839,3.1844,3.1899,3.1904,3.1988,3.2001,3.2009,3.2009,3.201,3.2009,3.203,3.2021,3.2008,3.2007,3.2006,3.2005,0,3.1505,3.1518,3.161,3.165,3.1662,3.1722,3.1756,3.1807,3.182,3.1891,3.1908,3.1928,3.1992,3.2002,3.2077,3.2081,3.218,3.2172,3.2166,3.2165,3.2227,3.2221,3.2425,3.2452,3.2279,3.2281,3.2282,0,3.1591,3.1648,3.1695,3.1732,3.1757,3.1816,3.1853,3.1857,3.1896,3.1948,3.1993,3.2055,3.2105,3.2208,3.2229,3.2286,3.2279,3.2347,3.2288,3.2287,3.228,3.2276,3.2282,3.2358,3.236,3.2361,3.2363,0,3.1741,3.1745,3.1799,3.1856,3.1901,3.1945,3.1987,3.2018,3.2028,3.2073,3.2138,3.2177,3.2254,3.2316,3.2374,3.2397,3.2382,3.2382,3.2399,3.24,3.2394,3.2398,3.2197,3.2376,3.2375,3.2374,3.2373,3.2373,3.1849,3.1899,3.194,3.2001,3.2034,3.2074,3.2123,3.2144,3.2198,3.2261,3.2261,3.2333,3.2374,3.2449,3.2477,3.2533,3.2511,3.2536,3.2542,3.2548,3.2554,3.2386,3.2543,3.2543,3.2543,3.2542,3.2542,0,3.1998,3.2024,3.208,3.214,3.2188,3.2171,3.2218,3.2259,3.2322,3.2362,3.2412,3.2488,3.2548,3.2575,3.2635,3.2675,3.267,3.2691,3.2687,3.2693,3.257,3.2549,3.2694,3.2694,3.2694,3.2694,3.2694,3.2694,3.2082,3.2166,3.2176,3.2277,3.2302,3.2372,3.2401,3.2438,3.247,3.2555,3.2606,3.2623,3.2658,3.2721,3.2776,3.2782,3.2805,3.2829,3.2832,3.2717,3.2702,3.2687,3.2667,3.2834,3.2834,3.295,3.2951,3.2952]},{"header":{"parameterUnit":"m.s-1","parameterCategory":1,"la1":30.2991,"la2":30.254,"lo1":-89.0895,"lo2":-89.0444,"dy":0.0017,"dx":0.0017,"nx":28,"ny":28,"refTime":"2025-09-19T09:00:00:Z","depth":0,"parameterNumber":3,"parameterNumberName":"V-component_of_WINDS"},"data":[0,0,0,0,0,0,0,0,0,0,0,0,0,0,0,0,0,0,0,0,0,0,0,0,0,0,0,0,0,0,0,0,0,0,0,0,0,0,0,0,0,0,0,0,0,0,0,0,0,0,0,0,0,0,0,0,0,0,-2.1362,-2.1362,0,-2.143,-2.143,-2.1431,-2.1412,-2.141,-2.1409,-2.1408,-2.1476,-2.1479,-2.1482,0,0,0,0,0,0,0,0,0,0,0,0,0,-2.1214,-2.1217,-2.1361,-2.1362,-2.1363,-2.1429,-2.143,-2.1431,-2.1412,-2.141,-2.1409,-2.1407,-2.1474,-2.1478,-2.1482,0,0,0,0,0,0,0,0,0,0,0,0,0,-2.1279,-2.1217,-2.1361,-2.1362,-2.1362,-2.1429,-2.143,-2.1431,-2.1412,-2.141,-2.1408,-2.1406,-2.1473,-2.1478,-2.1482,-2.1553,0,0,-2.1497,-2.1499,0,0,0,0,0,0,0,0,-2.1276,-2.1285,-2.1361,-2.1362,-2.1363,-2.141,-2.1403,-2.1472,-2.1413,-2.1393,-2.1408,-2.1405,-2.1455,-2.1461,-2.1479,-2.1556,-2.1559,-2.1497,-2.15,-2.1502,-2.1503,0,0,0,0,0,0,0,-2.1271,-2.1282,-2.1388,-2.1362,-2.1363,-2.1358,-2.1365,-2.1416,-2.1435,-2.1395,-2.1394,-2.1402,-2.1455,-2.1474,-2.148,-2.156,-2.1497,-2.1501,-2.1504,-2.1506,-2.1699,-2.1701,0,0,0,0,0,0,-2.1266,-2.1278,-2.1386,-2.139,-2.1313,-2.1362,-2.137,-2.1397,-2.1434,-2.1438,-2.1404,-2.1401,-2.1467,-2.1475,-2.1482,-2.1568,-2.1502,-2.1506,-2.1509,-2.1697,-2.1699,-2.1702,0,0,0,0,0,0,-2.1263,-2.1276,-2.1383,-2.1334,-2.1347,-2.1367,-2.1397,-2.1399,-2.1418,-2.1441,-2.1444,-2.1419,-2.1466,-2.1476,-2.1536,-2.157,-2.1508,-2.1512,-2.1694,-2.1697,-2.1701,-2.1738,0,0,0,0,0,0,-2.1259,-2.1275,-2.1302,-2.1335,-2.135,-2.1436,-2.1399,-2.1402,-2.1426,-2.1423,-2.1457,-2.146,-2.1465,-2.1529,-2.154,-2.1575,-2.1516,-2.1691,-2.1695,-2.17,-2.1734,-2.1743,-2.175,0,0,0,0,0,-2.1254,-2.1309,-2.1304,-2.1317,-2.1384,-2.1438,-2.1447,-2.1451,-2.1429,-2.1456,-2.1471,-2.1459,-2.1564,-2.1535,-2.1548,-2.1584,-2.1689,-2.1694,-2.1699,-2.1731,-2.1741,-2.175,0,0,0,0,0,0,-2.1279,-2.1314,-2.1308,-2.1376,-2.1404,-2.1435,-2.1469,-2.1462,-2.1497,-2.1493,-2.1497,-2.1504,-2.1566,-2.1581,-2.1548,-2.1655,-2.1623,-2.1631,-2.1643,-2.1653,-2.166,-2.1655,-2.152,0,0,0,0,0,-2.1293,-2.1334,-2.1362,-2.1419,-2.1434,-2.1449,-2.1473,-2.1474,-2.1504,-2.1515,-2.1535,-2.1563,-2.1603,-2.1628,-2.1666,-2.1736,-2.1743,-2.1768,-2.1776,-2.1782,-2.1789,-2.1828,-2.1839,-2.1719,-2.1719,-2.1719,0,0,-2.1322,-2.1346,-2.1371,-2.1425,-2.1447,-2.149,-2.1459,-2.1505,-2.1537,-2.1522,-2.158,-2.1595,-2.1627,-2.1693,-2.1723,-2.1708,-2.1824,-2.1789,-2.1794,-2.1797,-2.1834,-2.1846,-2.1856,-2.1723,-2.1722,-2.1722,0,0,-2.1395,-2.1418,-2.1468,-2.1491,-2.1526,-2.1536,-2.1548,-2.158,-2.159,-2.1648,-2.1638,-2.1675,-2.1743,-2.1767,-2.1787,-2.1871,-2.1861,-2.1883,-2.1925,-2.1962,-2.1972,-2.198,-2.201,-2.2021,-2.189,-2.189,-2.189,0,-2.1426,-2.149,-2.1495,-2.1542,-2.1566,-2.1556,-2.1607,-2.1629,-2.1674,-2.169,-2.1673,-2.1758,-2.1779,-2.185,-2.1871,-2.1888,-2.1902,-2.1879,-2.197,-2.1979,-2.1986,-2.2015,-2.2026,-2.1893,-2.1892,-2.1892,-2.1892,0,-2.1526,-2.1571,-2.1607,-2.1652,-2.168,-2.1729,-2.1741,-2.1769,-2.1768,-2.178,-2.1839,-2.1864,-2.1907,-2.1924,-2.1923,-2.1996,-2.1985,-2.1969,-2.1937,-2.2,-2.2027,-2.2038,-2.1896,-2.1895,-2.1894,-2.1894,0,0,-2.1617,-2.1665,-2.1678,-2.1698,-2.1736,-2.177,-2.1819,-2.1861,-2.1885,-2.1916,-2.1957,-2.2015,-2.2001,-2.2025,-2.2026,-2.206,-2.2125,-2.2039,-2.204,-2.2055,-2.2206,-2.2218,-2.2231,-2.2119,-2.2121,-2.2122,-2.2204,0,-2.1694,-2.178,-2.1786,-2.1864,-2.1905,-2.1896,-2.1939,-2.1966,-2.1979,-2.2015,-2.2029,-2.207,-2.2048,-2.2062,-2.2095,-2.211,-2.2155,-2.2104,-2.2156,-2.2158,-2.2149,-2.2245,-2.2258,-2.2333,-2.2214,-2.2216,-2.2217,0,-2.1795,-2.1831,-2.1913,-2.1945,-2.1963,-2.2001,-2.204,-2.2076,-2.2107,-2.2113,-2.2141,-2.2138,-2.2188,-2.2155,-2.2223,-2.2188,-2.221,-2.2221,-2.2224,-2.2229,-2.2191,-2.2253,-2.2357,-2.2369,-2.2234,-2.2233,-2.2231,0,-2.1854,-2.1922,-2.198,-2.1998,-2.2037,-2.2064,-2.2081,-2.2111,-2.2136,-2.2171,-2.2187,-2.2227,-2.2249,-2.228,-2.2288,-2.2263,-2.2356,-2.2324,-2.2363,-2.2363,-2.2383,-2.2382,-2.2493,-2.2397,-2.2397,-2.2397,-2.2397,0,-2.1939,-2.199,-2.2007,-2.2042,-2.2099,-2.2105,-2.2161,-2.2177,-2.2203,-2.2241,-2.2236,-2.2272,-2.2281,-2.2319,-2.2325,-2.2381,-2.2391,-2.2398,-2.2399,-2.2398,-2.2398,-2.2413,-2.2408,-2.24,-2.2399,-2.2399,-2.2398,0,-2.2014,-2.2028,-2.209,-2.2123,-2.2132,-2.2172,-2.22,-2.2234,-2.2246,-2.2295,-2.2307,-2.2325,-2.237,-2.2381,-2.2434,-2.2438,-2.2505,-2.2501,-2.2494,-2.2494,-2.2533,-2.2529,-2.2658,-2.2675,-2.2568,-2.2569,-2.257,0,-2.2068,-2.2106,-2.2143,-2.2169,-2.2188,-2.2229,-2.2255,-2.2263,-2.2291,-2.233,-2.236,-2.2403,-2.2439,-2.251,-2.2528,-2.2569,-2.2566,-2.2608,-2.2572,-2.257,-2.2567,-2.2564,-2.2568,-2.2615,-2.2616,-2.2617,-2.2617,0,-2.2161,-2.2166,-2.2204,-2.2246,-2.2277,-2.231,-2.2341,-2.2362,-2.2374,-2.2405,-2.2451,-2.2479,-2.2533,-2.2577,-2.2618,-2.2635,-2.2629,-2.2629,-2.264,-2.264,-2.2635,-2.2638,-2.2513,-2.2626,-2.2625,-2.2624,-2.2624,-2.2624,-2.2227,-2.2261,-2.2293,-2.2336,-2.236,-2.239,-2.2424,-2.2441,-2.2479,-2.2524,-2.2527,-2.2576,-2.2607,-2.2661,-2.2682,-2.272,-2.2708,-2.2724,-2.2728,-2.2732,-2.2736,-2.2629,-2.2728,-2.2728,-2.2727,-2.2727,-2.2727,0,-2.2321,-2.2341,-2.238,-2.2424,-2.2458,-2.245,-2.2484,-2.2513,-2.2557,-2.2586,-2.2622,-2.2674,-2.2717,-2.2739,-2.2781,-2.2808,-2.2806,-2.2819,-2.2817,-2.2821,-2.2745,-2.2731,-2.282,-2.282,-2.282,-2.282,-2.282,-2.282,-2.2373,-2.2431,-2.244,-2.251,-2.253,-2.2579,-2.2599,-2.2626,-2.265,-2.2709,-2.2745,-2.2759,-2.2786,-2.283,-2.2869,-2.2874,-2.289,-2.2904,-2.2908,-2.2836,-2.2826,-2.2817,-2.2804,-2.2908,-2.2908,-2.2981,-2.2982,-2.2983]}]]